FW0561 Weather Reports


time (UTC)temp
C
wind
direction
speed
KPH
gust
KPH
rain 1hr
cm
rain 24hr
cm
rain mn
cm
humidity
%
barometer
mb
20260507151418 22 107 1.6 11.3 0.00 0.00 0.00 44 1022.2
20260507150818 23 104 6.4 12.9 0.00 0.00 0.00 45 1022.2
20260507150218 22 96 0.0 9.7 0.00 0.00 0.00 47 1022.2
20260507145618 22 119 4.8 12.9 0.00 0.00 0.00 48 1022.2
20260507145019 22 134 1.6 9.7 0.00 0.00 0.00 50 1022.3
20260507144418 22 86 0.0 4.8 0.00 0.00 0.00 50 1022.3
20260507143818 22 64 1.6 6.4 0.00 0.00 0.00 51 1022.2
20260507143219 21 113 3.2 4.8 0.00 0.00 0.00 52 1022.2
20260507142631 21 24 0.0 6.4 0.00 0.00 0.00 53 1022.2
20260507142019 21 155 0.0 3.2 0.00 0.00 0.00 53 1022.3
20260507141418 21 96 0.0 1.6 0.00 0.00 0.00 53 1022.4
20260507140818 21 53 0.0 3.2 0.00 0.00 0.00 55 1022.3
20260507140218 20 110 0.0 6.4 0.00 0.00 0.00 57 1022.3
20260507135618 19 118 0.0 8.0 0.00 0.00 0.00 60 1022.4
20260507135018 18 109 0.0 4.8 0.00 0.00 0.00 61 1022.4
20260507134418 18 101 3.2 4.8 0.00 0.00 0.00 62 1022.4
20260507133819 18 104 0.0 4.8 0.00 0.00 0.00 62 1022.2
20260507133219 18 96 0.0 4.8 0.00 0.00 0.00 62 1022.2
20260507132618 18 74 0.0 4.8 0.00 0.00 0.00 65 1022.2
20260507132019 17 294 0.0 8.0 0.00 0.00 0.00 66 1022.2
20260507131418 16 297 1.6 6.4 0.00 0.00 0.00 69 1022.3
20260507130818 15 308 0.0 8.0 0.00 0.00 0.00 72 1022.3
20260507130218 14 298 3.2 9.7 0.00 0.00 0.00 74 1022.3
20260507125630 13 313 3.2 9.7 0.00 0.00 0.00 77 1022.3
20260507125018 13 308 3.2 8.0 0.00 0.00 0.00 80 1022.3
20260507124418 12 295 0.0 6.4 0.00 0.00 0.00 82 1022.1
20260507123831 12 279 3.2 8.0 0.00 0.00 0.00 83 1022.1
20260507123218 11 297 3.2 9.7 0.00 0.00 0.00 85 1022.0
20260507122618 11 292 3.2 6.4 0.00 0.00 0.00 87 1022.0
20260507122018 11 308 3.2 11.3 0.00 0.00 0.00 86 1022.0
20260507121418 11 300 4.8 9.7 0.00 0.00 0.00 86 1022.0
20260507120818 11 296 3.2 6.4 0.00 0.00 0.00 86 1022.0
20260507120218 11 304 3.2 9.7 0.00 0.00 0.00 87 1022.0
20260507115618 11 292 3.2 9.7 0.00 0.00 0.00 86 1022.0
20260507115018 11 285 3.2 9.7 0.00 0.00 0.00 86 1021.9
20260507114418 11 312 3.2 9.7 0.00 0.00 0.00 85 1021.9
20260507113818 11 272 3.2 8.0 0.00 0.00 0.00 84 1021.9
20260507113218 12 299 3.2 9.7 0.00 0.00 0.00 84 1021.8
20260507112618 12 275 3.2 8.0 0.00 0.00 0.00 83 1021.8
20260507112018 12 274 3.2 12.9 0.00 0.00 0.00 82 1021.7
20260507111418 12 279 3.2 11.3 0.00 0.00 0.00 82 1021.7
20260507110818 11 271 3.2 12.9 0.00 0.00 0.00 85 1021.7
20260507110218 11 292 3.2 8.0 0.00 0.00 0.00 86 1021.7
20260507105618 12 305 1.6 8.0 0.00 0.00 0.00 85 1021.7
20260507105018 12 283 3.2 6.4 0.00 0.00 0.00 85 1021.7
20260507104418 12 296 3.2 8.0 0.00 0.00 0.00 84 1021.7
20260507103818 12 295 3.2 8.0 0.00 0.00 0.00 84 1021.7
20260507103218 12 320 3.2 11.3 0.00 0.00 0.00 86 1021.7
20260507102618 12 305 4.8 8.0 0.00 0.00 0.00 86 1021.7
20260507102018 11 300 3.2 6.4 0.00 0.00 0.00 88 1021.5
20260507101418 12 262 1.6 3.2 0.00 0.00 0.00 87 1021.5
20260507100819 12 275 1.6 4.8 0.00 0.00 0.00 85 1021.5
20260507100219 13 331 0.0 4.8 0.00 0.00 0.00 83 1021.5
20260507095618 13 310 0.0 4.8 0.00 0.00 0.00 84 1021.5
20260507095018 13 328 1.6 4.8 0.00 0.00 0.00 82 1021.4
20260507094418 13 325 1.6 4.8 0.00 0.00 0.00 81 1021.4
20260507093818 13 297 0.0 4.8 0.00 0.00 0.00 81 1021.4
20260507093218 14 313 1.6 4.8 0.00 0.00 0.00 77 1021.3
20260507092630 13 328 0.0 4.8 0.00 0.00 0.00 78 1021.4
20260507092018 13 329 0.0 6.4 0.00 0.00 0.00 79 1021.4
20260507091418 13 325 3.2 6.4 0.00 0.00 0.00 80 1021.4
20260507090819 13 291 3.2 6.4 0.00 0.00 0.00 81 1021.3
20260507090218 13 305 3.2 4.8 0.00 0.00 0.00 78 1021.4
20260507085643 13 306 0.0 4.8 0.00 0.00 0.00 78 1021.4
20260507085030 13 318 0.0 4.8 0.00 0.00 0.00 79 1021.4
20260507084443 13 284 0.0 6.4 0.00 0.00 0.00 81 1021.5
20260507083818 13 295 3.2 8.0 0.00 0.00 0.00 82 1021.6
20260507083231 13 298 3.2 4.8 0.00 0.00 0.00 79 1021.6
20260507082618 13 295 0.0 6.4 0.00 0.00 0.00 80 1021.6
20260507082018 13 270 3.2 6.4 0.00 0.00 0.00 78 1021.6
20260507081418 13 283 1.6 9.7 0.00 0.00 0.00 78 1021.7
20260507080819 13 321 4.8 8.0 0.00 0.00 0.00 77 1021.7
20260507080218 13 302 1.6 6.4 0.00 0.00 0.00 76 1021.7
20260507075618 13 292 3.2 9.7 0.00 0.00 0.00 76 1021.7
20260507075018 12 298 3.2 8.0 0.00 0.00 0.00 78 1021.8
20260507074418 12 309 3.2 9.7 0.00 0.00 0.00 79 1021.8
20260507073818 12 289 3.2 8.0 0.00 0.00 0.00 80 1021.8
20260507073218 12 295 3.2 8.0 0.00 0.00 0.00 79 1021.8
20260507072618 12 305 3.2 6.4 0.00 0.00 0.00 76 1021.8
20260507072018 12 297 3.2 6.4 0.00 0.00 0.00 73 1021.9
20260507071430 12 289 3.2 6.4 0.00 0.00 0.00 74 1021.8
20260507070818 12 286 0.0 6.4 0.00 0.00 0.00 73 1021.8
20260507070218 12 272 3.2 8.0 0.00 0.00 0.00 71 1021.8
20260507065618 12 284 3.2 8.0 0.00 0.00 0.00 70 1021.9
20260507065018 12 284 4.8 4.8 0.00 0.00 0.00 68 1021.8
20260507064430 13 316 0.0 6.4 0.00 0.00 0.00 66 1022.0
20260507063818 13 270 1.6 3.2 0.00 0.00 0.00 67 1022.0
20260507063218 13 274 3.2 6.4 0.00 0.00 0.00 70 1022.0
20260507062618 13 310 3.2 4.8 0.00 0.00 0.00 67 1022.0
20260507062018 13 296 0.0 4.8 0.00 0.00 0.00 65 1022.0
20260507061418 13 290 0.0 8.0 0.00 0.00 0.00 65 1022.0
20260507060830 13 251 4.8 11.3 0.00 0.00 0.00 66 1022.0
20260507060218 13 296 3.2 11.3 0.00 0.00 0.00 65 1022.0
20260507055618 13 281 3.2 9.7 0.00 0.00 0.00 68 1022.1
20260507055018 13 288 4.8 6.4 0.00 0.00 0.00 68 1022.0
20260507054418 13 289 3.2 6.4 0.00 0.00 0.00 67 1022.0
20260507053819 13 293 3.2 6.4 0.00 0.00 0.00 66 1022.0
20260507053218 13 299 3.2 6.4 0.00 0.00 0.00 66 1022.0
20260507052632 13 299 3.2 6.4 0.00 0.00 0.00 66 1021.9
20260507052018 13 299 3.2 4.8 0.00 0.00 0.00 62 1022.0
20260507051419 13 280 0.0 6.4 0.00 0.00 0.00 62 1022.0
20260507050818 13 279 3.2 6.4 0.00 0.00 0.00 64 1021.9
20260507050218 14 308 3.2 8.0 0.00 0.00 0.00 61 1021.8
20260507045631 14 276 3.2 6.4 0.00 0.00 0.00 63 1021.8
20260507045018 14 261 1.6 4.8 0.00 0.00 0.00 61 1021.7
20260507044418 14 285 1.6 6.4 0.00 0.00 0.00 60 1021.7
20260507043818 15 265 3.2 6.4 0.00 0.00 0.00 61 1021.5
20260507043218 15 308 3.2 9.7 0.00 0.00 0.00 61 1021.4
20260507042618 14 280 3.2 4.8 0.00 0.00 0.00 67 1021.4
20260507042018 14 316 1.6 6.4 0.00 0.00 0.00 66 1021.2
20260507041418 14 242 3.2 3.2 0.00 0.00 0.00 69 1021.3
20260507040830 15 256 0.0 4.8 0.00 0.00 0.00 63 1021.1
20260507040218 15 348 0.0 3.2 0.00 0.00 0.00 64 1021.2
20260507035618 16 338 0.0 4.8 0.00 0.00 0.00 64 1021.1
20260507035055 16 328 0.0 4.8 0.00 0.00 0.00 61 1021.1
20260507034418 16 276 1.6 6.4 0.00 0.00 0.00 63 1021.1
20260507033818 17 263 0.0 3.2 0.00 0.00 0.00 60 1020.9
20260507033218 18 107 0.0 4.8 0.00 0.00 0.00 54 1020.9
20260507032618 20 93 0.0 12.9 0.00 0.00 0.00 49 1020.8
20260507032018 20 95 3.2 12.9 0.00 0.00 0.00 48 1020.7
20260507031418 20 82 4.8 14.5 0.00 0.00 0.00 48 1020.5
20260507030818 20 69 3.2 14.5 0.00 0.00 0.00 47 1020.4
20260507030218 21 85 3.2 14.5 0.00 0.00 0.00 46 1020.4
20260507025618 21 75 4.8 19.3 0.00 0.00 0.00 45 1020.3
20260507025018 21 85 4.8 20.9 0.00 0.00 0.00 44 1020.2
20260507024418 21 83 6.4 19.3 0.00 0.00 0.00 43 1020.0
20260507023830 21 59 6.4 20.9 0.00 0.00 0.00 43 1020.0
20260507023218 22 60 8.0 22.5 0.00 0.00 0.00 42 1020.0
20260507022618 22 59 9.7 19.3 0.00 0.00 0.00 40 1019.7
20260507022018 22 51 9.7 20.9 0.00 0.00 0.00 38 1019.7
20260507021418 22 68 6.4 17.7 0.00 0.00 0.00 35 1019.7
20260507020818 23 43 4.8 19.3 0.00 0.00 0.00 35 1019.4
20260507020218 23 56 4.8 22.5 0.00 0.00 0.00 33 1019.4
20260507015618 24 253 4.8 12.9 0.00 0.00 0.00 31 1019.3
20260507015019 25 23 4.8 19.3 0.00 0.00 0.00 23 1019.1
20260507014431 25 350 4.8 22.5 0.00 0.00 0.00 16 1018.7
20260507013843 25 348 9.7 27.4 0.00 0.00 0.00 14 1018.5
20260507013243 25 339 4.8 22.5 0.00 0.00 0.00 14 1018.5
20260507012630 25 336 4.8 17.7 0.00 0.00 0.00 14 1018.3
20260507012018 25 315 3.2 17.7 0.00 0.00 0.00 13 1018.3
20260507011418 26 328 3.2 20.9 0.00 0.00 0.00 12 1018.2
20260507010818 26 19 4.8 17.7 0.00 0.00 0.00 12 1018.2
20260507010218 26 297 6.4 22.5 0.00 0.00 0.00 12 1018.0
20260507005630 26 329 4.8 20.9 0.00 0.00 0.00 12 1018.0
20260507005031 27 319 4.8 20.9 0.00 0.00 0.00 11 1018.0
20260507004430 27 346 9.7 25.7 0.00 0.00 0.00 10 1017.9
20260507003818 27 351 3.2 20.9 0.00 0.00 0.00 11 1017.9
20260507003218 27 0 8.0 19.3 0.00 0.00 0.00 9 1017.8
20260507002618 28 318 1.6 19.3 0.00 0.00 0.00 11 1017.9
20260507002018 28 287 3.2 12.9 0.00 0.00 0.00 10 1017.8
20260507001430 30 238 3.2 12.9 0.00 0.00 0.00 8 1018.0
20260507000818 30 195 0.0 12.9 0.00 0.00 0.00 8 1017.9
20260507000219 30 158 8.0 20.9 0.00 0.00 0.00 7 1017.9
20260506235618 31 258 3.2 27.4 0.00 0.00 0.00 9 1017.9
20260506235018 31 294 8.0 33.8 0.00 0.00 0.00 8 1017.9
20260506234418 31 263 4.8 17.7 0.00 0.00 0.00 8 1017.9
20260506233818 31 245 6.4 17.7 0.00 0.00 0.00 7 1017.7
20260506233218 31 248 4.8 17.7 0.00 0.00 0.00 8 1017.9
20260506232618 32 158 0.0 4.8 0.00 0.00 0.00 6 1017.7
20260506232019 31 177 0.0 11.3 0.00 0.00 0.00 7 1017.7
20260506231430 31 193 0.0 19.3 0.00 0.00 0.00 7 1017.7
20260506230818 31 133 1.6 22.5 0.00 0.00 0.00 7 1017.7
20260506230230 31 212 3.2 12.9 0.00 0.00 0.00 7 1017.9
20260506225618 30 173 0.0 11.3 0.00 0.00 0.00 9 1018.0
20260506225018 30 251 3.2 17.7 0.00 0.00 0.00 9 1018.0
20260506224418 31 267 3.2 19.3 0.00 0.00 0.00 7 1018.1
20260506223818 31 175 3.2 19.3 0.00 0.00 0.00 7 1018.1
20260506223218 31 239 0.0 17.7 0.00 0.00 0.00 7 1018.0
20260506222630 31 231 0.0 14.5 0.00 0.00 0.00 6 1018.0
20260506222018 31 272 1.6 27.4 0.00 0.00 0.00 7 1018.1
20260506221418 31 235 3.2 19.3 0.00 0.00 0.00 7 1018.1
20260506220830 30 99 0.0 16.1 0.00 0.00 0.00 6 1018.3
20260506220218 31 174 4.8 27.4 0.00 0.00 0.00 7 1018.4
20260506215643 32 236 6.4 27.4 0.00 0.00 0.00 7 1018.6
20260506215018 31 211 6.4 29.0 0.00 0.00 0.00 7 1018.3
20260506214418 31 175 1.6 14.5 0.00 0.00 0.00 7 1018.4
20260506213818 31 186 6.4 19.3 0.00 0.00 0.00 6 1018.5
20260506213219 31 288 3.2 22.5 0.00 0.00 0.00 8 1018.6
20260506212618 31 136 3.2 20.9 0.00 0.00 0.00 8 1018.7
20260506212018 31 306 4.8 17.7 0.00 0.00 0.00 7 1018.7
20260506211431 31 227 3.2 24.1 0.00 0.00 0.00 7 1018.8
20260506210818 31 256 0.0 17.7 0.00 0.00 0.00 7 1018.8
20260506210218 31 223 0.0 24.1 0.00 0.00 0.00 7 1019.0
20260506205618 31 210 1.6 38.6 0.00 0.00 0.00 7 1019.1
20260506205018 31 204 17.7 30.6 0.00 0.00 0.00 9 1019.1
20260506204418 31 194 4.8 32.2 0.00 0.00 0.00 8 1019.1
20260506203830 31 228 8.0 33.8 0.00 0.00 0.00 8 1019.2
20260506203218 31 174 6.4 30.6 0.00 0.00 0.00 8 1019.2
20260506202618 31 226 8.0 30.6 0.00 0.00 0.00 8 1019.2
20260506202018 31 250 4.8 29.0 0.00 0.00 0.00 7 1019.4
20260506201431 31 167 3.2 25.7 0.00 0.00 0.00 8 1019.4
20260506200818 31 194 4.8 22.5 0.00 0.00 0.00 7 1019.4
20260506200230 31 220 1.6 25.7 0.00 0.00 0.00 6 1019.4
20260506195618 31 169 1.6 22.5 0.00 0.00 0.00 7 1019.5
20260506195018 31 158 4.8 25.7 0.00 0.00 0.00 7 1019.6
20260506194418 30 231 3.2 29.0 0.00 0.00 0.00 7 1019.6
20260506193843 31 226 6.4 30.6 0.00 0.00 0.00 8 1019.9
20260506193218 31 245 3.2 27.4 0.00 0.00 0.00 7 1019.9
20260506192618 31 225 6.4 22.5 0.00 0.00 0.00 8 1019.9
20260506192019 30 166 0.0 22.5 0.00 0.00 0.00 6 1020.1
20260506191418 31 250 4.8 27.4 0.00 0.00 0.00 7 1020.2
20260506190818 30 222 0.0 16.1 0.00 0.00 0.00 8 1020.1
20260506190218 30 167 0.0 29.0 0.00 0.00 0.00 8 1020.2
20260506185618 31 250 3.2 22.5 0.00 0.00 0.00 8 1020.2
20260506185018 31 249 11.3 20.9 0.00 0.00 0.00 8 1020.2
20260506184418 31 161 1.6 20.9 0.00 0.00 0.00 10 1020.3
20260506183818 30 260 0.0 20.9 0.00 0.00 0.00 8 1020.3
20260506183218 30 254 9.7 22.5 0.00 0.00 0.00 9 1020.5
20260506182618 30 245 6.4 14.5 0.00 0.00 0.00 10 1020.6
20260506182018 30 333 1.6 14.5 0.00 0.00 0.00 8 1020.6
20260506181418 30 277 0.0 29.0 0.00 0.00 0.00 8 1020.7
20260506180818 30 179 3.2 16.1 0.00 0.00 0.00 8 1020.8
20260506180218 29 166 11.3 22.5 0.00 0.00 0.00 8 1020.8
20260506175618 30 252 1.6 24.1 0.00 0.00 0.00 8 1020.8
20260506175018 29 196 3.2 27.4 0.00 0.00 0.00 8 1020.8
20260506174418 29 235 6.4 25.7 0.00 0.00 0.00 7 1020.6
20260506173818 30 222 3.2 25.7 0.00 0.00 0.00 7 1020.8
20260506173218 29 216 0.0 19.3 0.00 0.00 0.00 7 1020.8
20260506172618 29 231 3.2 22.5 0.00 0.00 0.00 8 1020.9
20260506172018 29 248 0.0 22.5 0.00 0.00 0.00 9 1021.0
20260506171419 28 145 0.0 9.7 0.00 0.00 0.00 9 1021.0
20260506170818 28 233 3.2 8.0 0.00 0.00 0.00 9 1021.2
20260506170218 28 116 6.4 24.1 0.00 0.00 0.00 9 1021.2
20260506165618 27 73 4.8 20.9 0.00 0.00 0.00 10 1021.2
20260506165017 27 56 4.8 11.3 0.00 0.00 0.00 10 1021.0
20260506164418 27 86 3.2 11.3 0.00 0.00 0.00 9 1021.2
20260506163818 27 114 0.0 11.3 0.00 0.00 0.00 9 1021.2
20260506163218 27 180 0.0 20.9 0.00 0.00 0.00 9 1021.2
20260506162618 27 147 9.7 17.7 0.00 0.00 0.00 11 1021.0
20260506162018 27 132 4.8 14.5 0.00 0.00 0.00 10 1021.2
20260506161430 27 130 0.0 9.7 0.00 0.00 0.00 9 1021.2
20260506160830 27 119 0.0 8.0 0.00 0.00 0.00 9 1021.2
20260506160218 27 271 0.0 11.3 0.00 0.00 0.00 10 1021.2
20260506155618 26 284 3.2 6.4 0.00 0.00 0.00 11 1021.2
20260506155018 26 305 0.0 6.4 0.00 0.00 0.00 11 1021.2
20260506154418 26 99 0.0 8.0 0.00 0.00 0.00 11 1021.3
20260506153830 25 184 0.0 9.7 0.00 0.00 0.00 12 1021.3
20260506153218 25 78 4.8 9.7 0.00 0.00 0.00 12 1021.3
20260506152618 25 237 0.0 4.8 0.00 0.00 0.00 13 1021.5
20260506152018 24 151 1.6 8.0 0.00 0.00 0.00 13 1021.5